Location: Kuffner-Sternwarte
(48.2130°N, 16.2960°E)
Time: 04:52:15
(UTC+02:00)

COROT - Pass Details

Date: 23 May 2017
Orbit: 602 x 888 km, 90.0° (Epoch: 26 July)

Event Time Altitude Azimuth Distance (km) Brightness Sun altitude
Rises 21:17:58 0° 5° (N) 3,204 9.8 -6.2°
Reaches altitude 10° 21:20:26 10° 10° (N) 2,228 8.9 -6.5°
Maximum altitude 21:25:14 54° 87° (E) 832 6.0 -7.1°
Drops below altitude 10° 21:29:39 10° 166° (SSE) 2,048 7.7 -7.6°
Enters shadow 21:30:50 - 169° (SSE) 2,515 8.2 -7.8°
